TimeMST,TemperatureF,Dew PointF,Humidity,Sea Level PressureIn,VisibilityMPH,Wind Direction,Wind SpeedMPH,Gust SpeedMPH,PrecipitationIn,Events,Conditions,WindDirDegrees,DateUTC
12:53 AM,26.1,21.9,84,29.79,10.0,Calm,Calm,-,N/A,,Overcast,0,2013-03-09 07:53:00
1:53 AM,25.0,21.9,88,29.79,10.0,NNW,4.6,-,N/A,,Mostly Cloudy,330,2013-03-09 08:53:00
2:53 AM,26.1,23.0,88,29.75,10.0,Calm,Calm,-,N/A,,Mostly Cloudy,0,2013-03-09 09:53:00
3:53 AM,30.0,24.1,79,29.72,10.0,North,5.8,-,N/A,,Mostly Cloudy,350,2013-03-09 10:53:00
4:53 AM,30.0,24.1,79,29.70,10.0,North,5.8,-,N/A,,Clear,350,2013-03-09 11:53:00
5:53 AM,30.9,24.1,76,29.75,10.0,NNE,13.8,18.4,N/A,,Overcast,30,2013-03-09 12:53:00
6:45 AM,30.2,24.8,80,29.72,10.0,North,9.2,-,N/A,,Overcast,10,2013-03-09 13:45:00
6:53 AM,30.0,23.0,75,29.79,10.0,North,9.2,20.7,N/A,,Overcast,360,2013-03-09 13:53:00
7:46 AM,28.4,23.0,80,29.73,10.0,North,13.8,26.5,N/A,,Overcast,10,2013-03-09 14:46:00
7:53 AM,28.9,23.0,78,29.81,10.0,North,11.5,20.7,N/A,,Overcast,360,2013-03-09 14:53:00
8:37 AM,30.2,23.0,75,29.74,10.0,North,12.7,21.9,N/A,,Overcast,350,2013-03-09 15:37:00
8:53 AM,30.0,23.0,75,29.83,10.0,North,11.5,19.6,N/A,,Overcast,350,2013-03-09 15:53:00
9:43 AM,32.0,19.4,60,29.76,10.0,NNW,13.8,23.0,N/A,,Overcast,340,2013-03-09 16:43:00
9:53 AM,32.0,18.0,56,29.83,10.0,NNW,16.1,26.5,N/A,,Overcast,340,2013-03-09 16:53:00
10:53 AM,34.0,12.0,40,29.82,10.0,NNW,12.7,23.0,N/A,,Overcast,330,2013-03-09 17:53:00
11:53 AM,34.0,10.9,38,29.83,10.0,NNE,11.5,29.9,N/A,,Mostly Cloudy,20,2013-03-09 18:53:00
12:53 PM,35.1,12.9,40,29.82,10.0,North,18.4,33.4,N/A,,Clear,10,2013-03-09 19:53:00
1:53 PM,35.1,14.0,42,29.84,10.0,North,12.7,27.6,N/A,,Clear,10,2013-03-09 20:53:00
2:53 PM,34.0,12.9,42,29.87,10.0,NNW,16.1,31.1,N/A,,Clear,330,2013-03-09 21:53:00
3:53 PM,33.1,12.0,42,29.90,10.0,North,13.8,27.6,N/A,,Clear,360,2013-03-09 22:53:00
4:53 PM,30.0,8.1,40,29.96,10.0,North,15.0,29.9,N/A,,Clear,350,2013-03-09 23:53:00
5:53 PM,27.0,9.0,47,30.00,10.0,North,16.1,29.9,N/A,,Scattered Clouds,350,2013-03-10 00:53:00
6:53 PM,26.1,12.0,55,30.04,10.0,North,9.2,19.6,N/A,,Mostly Cloudy,360,2013-03-10 01:53:00
7:53 PM,26.1,12.9,58,30.07,10.0,NNW,6.9,17.3,N/A,,Overcast,340,2013-03-10 02:53:00
8:35 PM,24.8,15.8,69,29.99,3.0,NNW,9.2,20.7,0.00,Snow,Light Snow,330,2013-03-10 03:35:00
8:53 PM,24.1,16.0,71,30.10,6.0,Variable,5.8,17.3,0.00,Snow,Light Snow,0,2013-03-10 03:53:00
9:42 PM,24.8,15.8,69,30.00,6.0,North,8.1,-,0.00,Snow,Light Snow,10,2013-03-10 04:42:00
9:53 PM,23.0,16.0,74,30.10,4.0,NNW,6.9,-,0.00,Snow,Light Snow,340,2013-03-10 04:53:00
10:01 PM,23.0,15.8,74,30.00,3.0,NNW,6.9,-,0.00,Snow,Light Snow,340,2013-03-10 05:01:00
10:53 PM,23.0,12.9,65,30.08,9.0,NNW,12.7,24.2,0.00,Snow,Light Snow,340,2013-03-10 05:53:00
11:53 PM,21.0,12.0,68,30.08,9.0,NNW,9.2,24.2,0.00,Snow,Light Snow,330,2013-03-10 06:53:00